Tracking 28790 objects as of 19-Apr-2024
HD Live streaming from Space Station
objects crossing your sky now

SL-16 DEB

Track SL-16 DEB now!
10-day predictions


NORAD ID: 23407
Int'l Code: 1994-077D
Perigee: 845.9 km
Apogee: 1,143.0 km
Inclination: 71.0 °
Period: 104.8 minutes
Semi major axis: 7365 km
RCS: 0.08 m2 (small)
Launch date: November 24, 1994
Source: Commonwealth of Independent States (former USSR) (CIS)
Launch site: TYURATAM MISSILE AND SPACE COMPLEX (TTMTR)

Note: This is SATELLITE DEBRIS
Your satellite tracking list
Your tracking list is empty




NASA's NSSDC Master Catalog

Two Line Element Set (TLE):
1 23407U 94077D   24109.52503434  .00000192  00000-0  21934-3 0  9999
2 23407  71.0322 145.7905 0201679 283.4612 196.0439 13.73432562473119
Source of the keplerian elements: AFSPC